Location: Chaumontel
(49.1247°N, 2.4324°E)
Time: 08:19:41
(UTC+00:00)

IRIDIUM 103 - Pass Details

Date: 20 May 2025
Orbit: 775 x 780 km, 86.4° (Epoch: 20 June)

Event Time Altitude Azimuth Distance (km) Brightness Sun altitude
Exits shadow 02:01:43 19° 238° (WSW) 1,774 5.7 -14.6°
Maximum altitude 02:04:28 30° 284° (WNW) 1,367 5.4 -14.4°
Drops below altitude 10° 02:09:04 10° 346° (NNW) 2,344 7.4 -14.0°
Sets 02:11:43 0° 357° (N) 3,276 8.5 -13.7°
